Station 44137 - East Scotia Slope Image indicating link to RSS feed of recent meteorological observations for station 44137

Data from this station are not quality controlled by NDBC


Conditions at 44137 as of
(3:00 am ADT)
0600 GMT on 06/13/2024:
     

Click on the graph icon in the table below to see a time series plot of the last five days of that observation.

5-day plot - Wind Direction Wind Direction (WDIR): SW ( 220 deg true )
5-day plot - Wind Speed Wind Speed (WSPD):3.0 m/s
5-day plot - Wind Gust Wind Gust (GST):3.0 m/s
5-day plot - Wave Height Wave Height (WVHT): 1.1 m
5-day plot - Dominant Wave Period Dominant Wave Period (DPD): 8 sec
5-day plot - Atmospheric Pressure Atmospheric Pressure (PRES):1017.5 mb
5-day plot - Pressure Tendency Pressure Tendency (PTDY): -0.1 mb ( Falling )
5-day plot - Air Temperature Air Temperature (ATMP): 11.9 °C
5-day plot - Water Temperature Water Temperature (WTMP): 10.2 °C
5-day plot - Wind Chill Wind Chill (CHILL): 10.8 °C
5-day plot -  Wind Speed, Wind Gust and Atmospheric Pressure Combined plot of Wind Speed, Gust, and Air Pressure

Data from this station are not quality controlled by NDBC

Previous observations
TIME
(ADT)
5-day plot - Wind Direction
WDIR
 
5-day plot - Wind Speed
WSPD
m/s
5-day plot - Wind Gust
GST
m/s
5-day plot - Wave Height
WVHT
m
5-day plot - Dominant Wave Period
DPD
sec
5-day plot - Average Wave Period
APD
sec
5-day plot - Mean Wave Direction
MWD
 
5-day plot - Atmospheric Pressure
PRES
mb
5-day plot - Pressure Tendency
PTDY
mb
5-day plot - Air Temperature
ATMP
°C
5-day plot - Water Temperature
WTMP
°C
5-day plot - Dew Point
DEWP
°C
5-day plot - Salinity
SAL
psu
5-day plot - Visibility
VIS
km
5-day plot - Tide (above MLLW)
TIDE
m
2024-06-13 02:00 am SW 3.0 4.0 1.2 7--1017.5 -0.2 12.1 10.3----
2024-06-13 01:00 am SW 4.0 4.0 1.1 7--1017.6 +0.2 12.4 10.4----
2024-06-13 12:00 am SW 4.0 4.0 1.0 7--1017.6 +1.0 12.4 10.4----
2024-06-12 11:00 pm SW 4.0 4.0 1.0 7--1017.7 +1.4 12.3 10.8----
2024-06-12 10:00 pm SW 3.0 3.0 1.0 8--1017.4 +1.2 12.1 10.9----
2024-06-12 09:00 pmWSW 3.0 3.0 0.9 7--1016.6 +0.7 12.0 11.0----
2024-06-12 08:00 pmWSW 3.0 4.0 0.9 7--1016.3 +0.8 12.3 11.1----
2024-06-12 07:00 pm SW 3.0 4.0 0.8 7--1016.2 +1.0 12.5 11.3----
2024-06-12 06:00 pmWSW 2.0 3.0 0.8 7--1015.9 +0.8 12.8 11.4----
2024-06-12 05:00 pm W 2.0 4.0 0.8 7--1015.5 +0.2 12.8 11.3----
2024-06-12 04:00 pm NW 3.0 4.0 0.8 7--1015.2 -0.4 12.3 10.9----
2024-06-12 03:00 pm N 3.0 4.0 0.9 7--1015.1 -0.5 12.2 10.7----
2024-06-12 02:00 pmNNE 4.0 5.0 0.9 7--1015.3 -0.1 11.9 10.2----
2024-06-12 01:00 pm N 4.0 4.0 1.0 7--1015.6 +0.1 11.6 9.9----
2024-06-12 12:00 pmNNW 5.0 6.0 1.1 7--1015.6 +1.4 11.7 10.1----
2024-06-12 11:00 am N 4.0 5.0 1.0 7--1015.4 -0.1 11.9 10.6----
2024-06-12 10:00 am NW 4.0 6.0 1.0 7--1015.5 -0.5 11.7 10.6----
2024-06-12 09:00 am E 6.0 7.0 1.0 7--1014.2 +0.3 13.2 10.8----
2024-06-12 08:00 amENE 3.0 4.0 1.0 7--1015.5 -0.1 13.2 10.8----
2024-06-12 07:00 am NW 2.0 3.0 0.9 7--1016.0 -0.5 12.1 10.7----
2024-06-12 06:00 am E 6.0 7.0 1.0 7--1013.9 -3.0 13.3 10.9----
2024-06-12 05:00 amENE 3.0 4.0 1.1 7--1015.6 -2.3 12.6 11.0----
2024-06-12 04:00 am SE 4.0 5.0 1.1 7--1016.5 -1.0 13.4 11.0----
2024-06-12 03:00 am E 2.0 3.0 1.2 7--1016.9 -0.7 13.0 11.0----